15 daagse weersverwachting Monza (IT)

  • Overzicht
  • Per uur
  • 15 dagen
  • Extra
  • Vergelijk
  • Kaarten
  • Dagkaart
  • Meer »
  • Info
  • Statistieken
  • Directe link
    Temp 6h Neerslag Wind  
 07:46     18:30    Daglengte: 10:44 Vandaag
20:00
16°
10.4 mm
4
 07:47     18:29    Daglengte: 10:42 Morgen
02:00
15°
8.1 mm
4
08:00
15°
 
5
14:00
19°
9.6 mm
6
20:00
17°
11.4 mm
5
 07:49     18:27    Daglengte: 10:38 Maandag 21 Okt
02:00
17°
14.5 mm
4
08:00
16°
37.9 mm
4
14:00
19°
35.5 mm
2
warningclass
20:00
18°
27.7 mm
2
 07:50     18:25    Daglengte: 10:35 Dinsdag 22 Okt
02:00
17°
43.5 mm
1
08:00
16°
16.0 mm
1
14:00
21°
 
2
Locatie info
Region: Lombardia
Latitude: 45.5841°N
Longitude: 9.2710°E
171 masl
Postcode: 20900
Temp/Neerslag /Baro Onweer/Dauwpunt
    Temp Baro 1h Neerslag Dauwpunt Wind UV Bewolking  
 07:46     18:30    Daglengte: 10:44 Vandaag
17:00
17°
1014.2 hPa 5.9 mm
48%
13.8°
4
Windvlaag: 0.3 km/h
66%
18:00
17°
1014.2 hPa 2.2 mm
82%
13.5°
4
Windvlaag: 0 km/h
70%
19:00
16°
1014.4 hPa 2.3 mm
82%
13.2°
4
Windvlaag: -0.1 km/h
75%
20:00
16°
1014.8 hPa
82%
12.9°
4
Windvlaag: -0.2 km/h
63%
21:00
16°
1015.1 hPa 2.2 mm
82%
12.8°
4
Windvlaag: 0.2 km/h
81%
22:00
16°
1015.5 hPa 2.1 mm
82%
13.1°
4
Windvlaag: 0.3 km/h
69%
23:00
16°
1015.7 hPa 1.8 mm
82%
13.3°
4
Windvlaag: 0.6 km/h
62%
 07:47     18:29    Daglengte: 10:42 Morgen
00:00
15°
1015.9 hPa 2.0 mm
81%
13.2°
4
Windvlaag: 0.6 km/h
35%
01:00
15°
1016.0 hPa
75%
13.2°
4
Windvlaag: 0.5 km/h
43%
02:00
15°
1016.3 hPa
73%
13.2°
4
Windvlaag: 0.1 km/h
46%
03:00
15°
1016.2 hPa
73%
13.3°
4
Windvlaag: 0.1 km/h
40%
04:00
15°
1016.0 hPa
72%
13.2°
4
Windvlaag: 0.2 km/h
46%
05:00
15°
1016.1 hPa
66%
13.1°
4
Windvlaag: 0.4 km/h
56%
06:00
15°
1016.3 hPa
25%
13.1°
5
Windvlaag: 0.6 km/h
50%
07:00
15°
1016.6 hPa
75%
13.2°
5
Windvlaag: 0.9 km/h
70%
08:00
15°
1016.7 hPa
76%
13.1°
5
Windvlaag: 1 km/h
75%
09:00
15°
1017.2 hPa 1.6 mm
79%
13.3°
5
Windvlaag: 1.9 km/h
64%
10:00
16°
1017.6 hPa 1.7 mm
80%
13.4°
5
Windvlaag: 1.9 km/h
81%
11:00
17°
1017.6 hPa 2.1 mm
82%
13.6°
6
Windvlaag: 1.8 km/h
71%
12:00
18°
1017.7 hPa
82%
14.0°
6
Windvlaag: 1.5 km/h
68%
13:00
18°
1017.2 hPa 2.2 mm
74%
13.9°
6
Windvlaag: 1 km/h
76%
14:00
19°
1017.0 hPa 1.9 mm
82%
13.9°
6
Windvlaag: 0.9 km/h
79%
15:00
19°
1016.5 hPa 2.1 mm
82%
13.9°
6
Windvlaag: 0.6 km/h
79%
16:00
19°
1016.3 hPa 1.7 mm
82%
13.8°
6
Windvlaag: 0.8 km/h
88%
17:00
18°
1016.1 hPa 1.8 mm
82%
13.7°
6
Windvlaag: 1.2 km/h
84%
18:00
18°
1016.2 hPa 1.8 mm
82%
13.5°
5
Windvlaag: -0.2 km/h
88%
19:00
18°
1016.5 hPa 2.0 mm
82%
13.4°
6
Windvlaag: 0.3 km/h
89%
20:00
17°
1016.8 hPa 2.0 mm
81%
13.4°
5
Windvlaag: 0.9 km/h
87%
21:00
17°
1016.9 hPa 1.7 mm
80%
13.6°
5
Windvlaag: 0.6 km/h
78%
22:00
17°
1017.5 hPa 2.8 mm
82%
13.5°
5
Windvlaag: 0.1 km/h
90%
23:00
17°
1017.8 hPa 1.9 mm
77%
13.4°
5
Windvlaag: 0.7 km/h
86%
 07:49     18:27    Daglengte: 10:38 Maandag 21 Okt
00:00
17°
1018.0 hPa 2.4 mm
82%
13.4°
5
Windvlaag: 1.2 km/h
85%
01:00
17°
1018.0 hPa 2.7 mm
82%
13.4°
5
Windvlaag: 1.3 km/h
88%
02:00
17°
1018.0 hPa 3.0 mm
82%
13.7°
4
Windvlaag: 1.9 km/h
87%
03:00
16°
1018.2 hPa 5.5 mm
47%
13.6°
4
Windvlaag: 0.4 km/h
81%
04:00
16°
1017.8 hPa 4.5 mm
82%
13.7°
4
Windvlaag: 0.3 km/h
85%
05:00
16°
1017.7 hPa 5.3 mm
82%
14.0°
4
Windvlaag: 0.5 km/h
91%
06:00
16°
1018.2 hPa 7.8 mm
82%
14.4°
3
Windvlaag: -0.4 km/h
90%
07:00
16°
1018.6 hPa 7.4 mm
82%
14.3°
4
Windvlaag: 0.2 km/h
90%
08:00
16°
1019.0 hPa 7.4 mm
81%
14.4°
4
Windvlaag: 0.4 km/h
89%
09:00
16°
1019.7 hPa 7.1 mm
76%
14.7°
4
Windvlaag: -0.3 km/h
85%
10:00
17°
1020.2 hPa 6.2 mm
77%
15.1°
4
Windvlaag: -0.5 km/h
90%
11:00
17°
1020.8 hPa 5.5 mm
93%
15.3°
3
Windvlaag: -0.6 km/h
89%
12:00
18°
1020.9 hPa 5.4 mm
94%
15.9°
2
Windvlaag: -0.9 km/h
95%
13:00
18°
1021.0 hPa 5.7 mm
97%
16.2°
2
Windvlaag: -0.5 km/h
95% warningclass
14:00
19°
1020.8 hPa 5.8 mm
99%
16.4°
2
Windvlaag: -0.7 km/h
95% warningclass
15:00
19°
1020.4 hPa 5.2 mm
98%
16.7°
3
Windvlaag: -0.7 km/h
97% warningclass
16:00
19°
1020.4 hPa 5.6 mm
100%
16.7°
2
Windvlaag: -0.6 km/h
95% warningclass
17:00
19°
1020.3 hPa 5.7 mm
100%
16.4°
2
Windvlaag: -0.8 km/h
97% warningclass
18:00
18°
1020.3 hPa 5.6 mm
100%
16.1°
2
Windvlaag: -0.8 km/h
97% warningclass
19:00
18°
1020.6 hPa 5.5 mm
100%
15.8°
2
Windvlaag: -0.6 km/h
96% warningclass
20:00
18°
1021.0 hPa
100%
15.6°
2
Windvlaag: -0.7 km/h
93%
21:00
18°
1021.0 hPa 7.4 mm
94%
15.5°
2
Windvlaag: -0.8 km/h
91%
22:00
17°
1021.4 hPa 7.4 mm
96%
15.4°
1
Windvlaag: -0.6 km/h
90%
23:00
17°
1021.9 hPa 7.5 mm
97%
15.7°
2
Windvlaag: 0.7 km/h
91%
 07:50     18:25    Daglengte: 10:35 Dinsdag 22 Okt
00:00
17°
1022.2 hPa 5.5 mm
98%
15.8°
2
Windvlaag: 0.9 km/h
99%
01:00
17°
1022.3 hPa 7.8 mm
100%
15.8°
1
Windvlaag: 0.8 km/h
98%
02:00
17°
1022.4 hPa 7.9 mm
100%
15.7°
1
Windvlaag: 0.5 km/h
96%
03:00
17°
1022.5 hPa 8.0 mm
100%
15.5°
2
Windvlaag: 0.4 km/h
93%
04:00
17°
1022.3 hPa 8.0 mm
97%
15.2°
2
Windvlaag: 0.3 km/h
91%
05:00
16°
1022.3 hPa
89%
15.1°
2
Windvlaag: 0 km/h
85%
06:00
16°
1022.3 hPa
74%
15.0°
2
Windvlaag: -0.2 km/h
89%
07:00
16°
1022.4 hPa
24%
15.0°
2
Windvlaag: -0.2 km/h
93%
08:00
16°
1022.7 hPa
21%
15.1°
1
Windvlaag: 0.1 km/h
92%
09:00
16°
1022.7 hPa
21%
15.2°
1
Windvlaag: 10.6 km/h
71%
10:00
17°
1022.7 hPa
21%
15.6°
1
Windvlaag: 11.5 km/h
68%
11:00
18°
1022.7 hPa
21%
16.0°
2
Windvlaag: 11.1 km/h
87%
12:00
19°
1022.7 hPa
21%
16.3°
2
Windvlaag: 11 km/h
77%
13:00
20°
1022.6 hPa
21%
16.5°
2
Windvlaag: 8.8 km/h
84%
14:00
21°
1022.5 hPa
21%
16.6°
2
Windvlaag: 1.1 km/h
82%
15:00
20°
1022.2 hPa 40.6 mm
100%
16.0°
2
Windvlaag: 8.3 km/h
86%
16:00
20°
1022.1 hPa 40.6 mm
100%
16.0°
2
Windvlaag: 8.4 km/h
88%
Temp/Neerslag /Baro Onweer/Dauwpunt
    Temp Baro Neerslag Dauwpunt Wind Bewolking  
 07:46     18:30    Daglengte: 10:44 Vandaag
17:00
17°
1014.2 hPa 5.9 mm 13.8°
4
66%
20:00
16°
1014.8 hPa 4.5 mm 12.9°
4
63%
23:00
16°
1015.7 hPa 6.1 mm 13.3°
4
62%
 07:47     18:29    Daglengte: 10:42 Morgen
02:00
15°
1016.3 hPa 2.0 mm 13.2°
4
46%
05:00
15°
1016.1 hPa   13.1°
4
56%
08:00
15°
1016.7 hPa   13.1°
5
75%
11:00
17°
1017.6 hPa 5.4 mm 13.6°
6
71%
14:00
19°
1017.0 hPa 4.1 mm 13.9°
6
79%
17:00
18°
1016.1 hPa 5.6 mm 13.7°
6
84%
20:00
17°
1016.8 hPa 5.8 mm 13.4°
5
87%
23:00
17°
1017.8 hPa 6.4 mm 13.4°
5
86%
 07:49     18:27    Daglengte: 10:38 Maandag 21 Okt
02:00
17°
1018.0 hPa 8.1 mm 13.7°
4
87%
05:00
16°
1017.7 hPa 15.3 mm 14.0°
4
91%
08:00
16°
1019.0 hPa 22.6 mm 14.4°
4
89%
11:00
17°
1020.8 hPa 18.7 mm 15.3°
3
89%
14:00
19°
1020.8 hPa 16.8 mm 16.4°
2
95% warningclass
17:00
19°
1020.3 hPa 16.5 mm 16.4°
2
97% warningclass
20:00
18°
1021.0 hPa 11.2 mm 15.6°
2
93%
23:00
17°
1021.9 hPa 22.4 mm 15.7°
2
91%
 07:50     18:25    Daglengte: 10:35 Dinsdag 22 Okt
02:00
17°
1022.4 hPa 21.1 mm 15.7°
1
96%
05:00
16°
1022.3 hPa 16.0 mm 15.1°
2
85%
08:00
16°
1022.7 hPa   15.1°
1
92%
11:00
18°
1022.7 hPa   16.0°
2
87%
14:00
21°
1022.5 hPa   16.6°
2
82%
17:00
19°
1022.0 hPa 121.8 mm 15.9°
2
82%
20:00
18°
1021.8 hPa 121.8 mm 15.7°
2
53%
23:00
16°
1021.8 hPa 23.8 mm 14.6°
2
68%
 07:51     18:24    Daglengte: 10:33 Woensdag 23 Okt
02:00
15°
1021.6 hPa 23.8 mm 14.1°
2
74%
05:00
14°
1021.0 hPa 23.8 mm 13.2°
1
81%
08:00
13°
1020.4 hPa 23.8 mm 12.2°
1
89%
11:00
18°
1019.8 hPa 23.8 mm 14.2°
1
63%
14:00
22°
1019.2 hPa 23.8 mm 15.6°
1
38%
17:00
19°
1018.9 hPa 23.8 mm 15.0°
1
56%
20:00
16°
1018.6 hPa 23.8 mm 14.2°
1
74%
23:00
15°
1018.6 hPa 23.8 mm 13.4°
2
83%
 07:53     18:22    Daglengte: 10:29 Donderdag 24 Okt
02:00
14°
1018.6 hPa 23.8 mm 12.7°
2
92%
05:00
14°
1018.3 hPa 23.8 mm 12.4°
2
89%
08:00
14°
1018.0 hPa 23.8 mm 12.1°
1
87%
11:00
17°
1018.1 hPa 24.0 mm 13.4°
1
88%
14:00
19°
1018.3 hPa 25.1 mm 14.4°
1
90%
17:00
18°
1018.3 hPa 25.5 mm 14.6°
1
91%
20:00
16°
1018.4 hPa 25.6 mm 14.5°
1
91%
23:00
15°
1018.7 hPa 25.6 mm 13.7°
1
72%
 07:54     18:20    Daglengte: 10:26 Vrijdag 25 Okt
02:00
14°
1018.8 hPa 25.6 mm 12.8°
1
53%
05:00
13°
1018.9 hPa 25.7 mm 12.4°
1
57%
08:00
13°
1019.1 hPa 25.7 mm 11.8°
1
62%
11:00
17°
1019.4 hPa 25.7 mm 13.2°
1
31%
14:00
20°
1019.7 hPa 25.7 mm 14.4°
1
0%
17:00
18°
1020.0 hPa 26.4 mm 14.2°
2
0%
20:00
15°
1020.4 hPa 28.3 mm 13.4°
2
1%
23:00
13°
1021.0 hPa 28.6 mm 12.4°
1
4%
 07:55     18:19    Daglengte: 10:24 Zaterdag 26 Okt
02:00
12°
1021.5 hPa 28.6 mm 11.3°
1
8%
05:00
12°
1021.5 hPa 28.7 mm 10.9°
1
5%
08:00
12°
1021.4 hPa 28.7 mm 10.5°
1
2%
11:00
16°
1021.7 hPa 29.2 mm 13.2°
1
1%
14:00
20°
1022.0 hPa 59.7 mm 15.4°
1
0%
20:00
15°
1021.3 hPa 62.2 mm 13.0°
2
0%
 07:57     18:17    Daglengte: 10:20 Zondag 27 Okt
02:00
13°
1021.2 hPa 62.2 mm 11.6°
1
0%
07:00
11°
1020.1 hPa 62.2 mm 9.0°
1
0%
13:00
20°
1019.7 hPa 62.2 mm 13.3°
1
0%
19:00
14°
1019.3 hPa 62.2 mm 11.3°
2
0%
 07:58     18:16    Daglengte: 10:18 Maandag 28 Okt
01:00
11°
1019.9 hPa 62.2 mm 9.8°
1
0%
07:00
10°
Voelt als: 9.0°
1020.2 hPa 62.2 mm 9.1°
2
0%
13:00
19°
1020.2 hPa 62.2 mm 12.8°
3
19%
19:00
13°
1020.0 hPa 62.2 mm 11.3°
2
0%
 08:00     18:14    Daglengte: 10:14 Dinsdag 29 Okt
01:00
12°
1020.7 hPa 62.2 mm 10.4°
2
90%
07:00
14°
1013.5 hPa 62.2 mm 7.6°
0
1%
13:00
17°
1016.4 hPa   6.9°
1
15%
19:00
11°
1017.2 hPa 0.1 mm 6.1°
1
22%
 08:01     18:13    Daglengte: 10:12 Woensdag 30 Okt
01:00
10°
Voelt als: 9.2°
1018.5 hPa 0.1 mm 5.0°
1
24%
07:00
Voelt als: 8.0°
1018.6 hPa 0.2 mm 4.3°
1
19%
13:00
15°
1017.5 hPa 0.2 mm 6.3°
1
19%
19:00
10°
1018.5 hPa 0.2 mm 5.8°
1
21%
 08:02     18:11    Daglengte: 10:09 Donderdag 31 Okt
01:00
Voelt als: 8.6°
1019.5 hPa 0.3 mm 4.7°
1
25%
07:00
Voelt als: 7.5°
1019.5 hPa 0.1 mm 3.8°
1
23%
13:00
15°
1017.9 hPa   5.9°
1
20%
19:00
10°
Voelt als: 9.7°
1018.9 hPa   5.7°
0
21%
 08:04     18:10    Daglengte: 10:06 Vrijdag 01 Nov
01:00
Voelt als: 8.6°
1019.8 hPa   4.5°
1
14%
07:00
Voelt als: 7.6°
1019.9 hPa   3.6°
1
12%
13:00
15°
1018.6 hPa   6.2°
1
18%
19:00
10°
Voelt als: 9.8°
1019.5 hPa   5.6°
0
19%
 08:05     18:08    Daglengte: 10:03 Zaterdag 02 Nov
01:00
Voelt als: 8.4°
1019.9 hPa 0.2 mm 4.9°
1
25%
07:00
Voelt als: 7.4°
1019.5 hPa 0.6 mm 4.3°
1
27%
13:00
15°
1018.4 hPa 0.2 mm 6.6°
1
23%
19:00
10°
Voelt als: 9.5°
1019.2 hPa 0.1 mm 6.1°
0
16%
 08:07     18:07    Daglengte: 10:00 Zondag 03 Nov
01:00
Voelt als: 8.5°
1019.7 hPa 0.1 mm 5.3°
1
18%
07:00
Voelt als: 7.5°
1019.2 hPa 0.6 mm 4.4°
1
27%
13:00
14°
1017.7 hPa 0.9 mm 6.4°
1
33%
  CAPE Lifted Index Hail Supercell Tornado SRH 3km CL BTM PRES CL TOP PRES Swiss DWD icon SMHI TS
 07:46     18:30    Daglengte: 10:44 Vandaag
17:00 251 J/kg -1.0 K 0 % 0 % 0 % 0 m²/s² 0 0 1.19 80
18:00 177 J/kg -0.2 K 0 % 0 % 0 % 0 m²/s² 0 0 1.15 80
19:00 165 J/kg -0.2 K 0 % 0 % 0 % 0 m²/s² 0 0 0.49 80
20:00 103 J/kg 0.2 K 0 % 0 % 0 % 0 m²/s² 0 0 1.4 80
21:00 42 J/kg 0.2 K 0 % 0 % 0 % 0 m²/s² 0 0 1.67 80
22:00 13 J/kg 0.7 K 0 % 0 % 0 % 0 m²/s² 0 0 1.93 80
23:00 0 J/kg 0.9 K 0 % 0 % 0 % 0 m²/s² 0 0 2.19 80
 07:47     18:29    Daglengte: 10:42 Morgen
00:00 0 J/kg 1.1 K 0 % 0 % 0 % 0 m²/s² 0 0 2.45 3
01:00 0 J/kg 0.8 K 0 % 0 % 0 % 0 m²/s² 0 0 2.15 3
02:00 0 J/kg 0.5 K 0 % 0 % 0 % 0 m²/s² 0 0 2.06 3
03:00 0 J/kg 0.6 K 0 % 0 % 0 % 0 m²/s² 0 0 2.79 3
04:00 0 J/kg 0.3 K 0 % 0 % 0 % 0 m²/s² 0 0 2.85 3
05:00 0 J/kg 0.0 K 0 % 0 % 0 % 0 m²/s² 0 0 2.55 3
06:00 0 J/kg 0.2 K 0 % 0 % 0 % 0 m²/s² 0 0 2.48 3
07:00 0 J/kg 0.2 K 0 % 0 % 0 % 0 m²/s² 0 0 2.09 61
08:00 0 J/kg 0.2 K 0 % 0 % 0 % 0 m²/s² 0 0 2.15 61
09:00 0 J/kg 0.3 K 0 % 0 % 0 % 0 m²/s² 0 0 2.13 80
10:00 0 J/kg 0.5 K 0 % 0 % 0 % 0 m²/s² 0 0 2.15 80
11:00 0 J/kg 0.7 K 0 % 0 % 0 % 0 m²/s² 0 0 1.99 3
12:00 0 J/kg 0.4 K 0 % 0 % 0 % 0 m²/s² 0 0 1.75 80
13:00 0 J/kg -0.3 K 0 % 0 % 0 % 0 m²/s² 0 0 1.17 3
14:00 0 J/kg -0.7 K 0 % 0 % 0 % 0 m²/s² 0 0 0.83 61
15:00 0 J/kg -1.3 K 0 % 0 % 0 % 0 m²/s² 0 0 0.65 63
16:00 0 J/kg -1.8 K 0 % 0 % 0 % 0 m²/s² 0 0 0.15 80
17:00 0 J/kg -1.4 K 0 % 0 % 0 % 0 m²/s² 0 0 0.25 80
18:00 0 J/kg -1.5 K 0 % 0 % 0 % 0 m²/s² 0 0 0.21 80
19:00 0 J/kg -2.2 K 0 % 0 % 0 % 0 m²/s² 0 0 -0.94 80
20:00 0 J/kg -4.2 K 0 % 0 % 0 % 0 m²/s² 0 0 -3.63 80
21:00 0 J/kg -4.3 K 0 % 0 % 0 % 0 m²/s² 0 0 -4.12 3
22:00 0 J/kg -4.2 K 0 % 0 % 0 % 0 m²/s² 0 0 -3.72 80
23:00 0 J/kg -4.6 K 0 % 0 % 0 % 0 m²/s² 0 0 -4.33 3
 07:49     18:27    Daglengte: 10:38 Maandag 21 Okt
00:00 0 J/kg -5.0 K 0 % 0 % 0 % 0 m²/s² 0 0 -4.52 3
01:00 0 J/kg -5.1 K 0 % 0 % 0 % 0 m²/s² 0 0 -4.71 80
02:00 0 J/kg -3.3 K 0 % 0 % 0 % 0 m²/s² 0 0 -3.21 80
03:00 0 J/kg -4.7 K 0 % 0 % 0 % 0 m²/s² 0 0 -4.52 3
04:00 0 J/kg -4.6 K 0 % 0 % 0 % 0 m²/s² 0 0 -4.39 80
05:00 0 J/kg -4.2 K 0 % 0 % 0 % 0 m²/s² 0 0 -3.69 80
06:00 0 J/kg -2.3 K 0 % 0 % 0 % 0 m²/s² 0 0 -1.46 80
07:00 10 J/kg -1.1 K 0 % 0 % 0 % 0 m²/s² 0 0 -0.29 80
08:00 34 J/kg -1.1 K 0 % 0 % 0 % 0 m²/s² 0 0 -0.53 80
09:00 88 J/kg -1.2 K 0 % 0 % 0 % 0 m²/s² 0 0 -0.81 80
10:00 241 J/kg -1.5 K 0 % 0 % 0 % 0 m²/s² 0 0 -0.99 80
11:00 358 J/kg -1.8 K 0 % 0 % 0 % 0 m²/s² 0 0 -1.71 80
12:00 389 J/kg -1.9 K 0 % 0 % 0 % 0 m²/s² 0 0 -1.6 2
13:00 486 J/kg -2.4 K 0 % 0 % 0 % 0 m²/s² 0 0 -2.07 3
14:00 562 J/kg -2.7 K 0 % 0 % 0 % 0 m²/s² 0 0 -2.31 80
15:00 571 J/kg -2.9 K 0 % 0 % 0 % 0 m²/s² 0 0 -2.3 80
16:00 409 J/kg -3.4 K 0 % 0 % 0 % 0 m²/s² 0 0 -2.35 80
17:00 407 J/kg -4.2 K 0 % 0 % 0 % 0 m²/s² 0 0 -3 80
18:00 435 J/kg -4.3 K 0 % 0 % 0 % 0 m²/s² 0 0 -2.95 80
19:00 436 J/kg -4.1 K 0 % 0 % 0 % 0 m²/s² 0 0 -2.15 3
20:00 339 J/kg -3.8 K 0 % 0 % 0 % 0 m²/s² 0 0 -1.91 3
21:00 216 J/kg -3.3 K 0 % 0 % 0 % 0 m²/s² 0 0 -1.41 3
22:00 209 J/kg -2.6 K 0 % 0 % 0 % 0 m²/s² 0 0 -0.71 3
23:00 562 J/kg -2.8 K 0 % 0 % 0 % 0 m²/s² 0 0 -1.21 80
 07:50     18:25    Daglengte: 10:35 Dinsdag 22 Okt
00:00 844 J/kg -3.0 K 0 % 0 % 0 % 0 m²/s² 0 0 -1.74 3
01:00 781 J/kg -2.7 K 0 % 0 % 0 % 0 m²/s² 0 0 -1.5 3
02:00 708 J/kg -2.4 K 0 % 0 % 0 % 0 m²/s² 0 0 -1.71 80
03:00 466 J/kg -2.4 K 0 % 0 % 0 % 0 m²/s² 0 0 -1.83 3
04:00 152 J/kg -1.5 K 0 % 0 % 0 % 0 m²/s² 0 0 -0.75 80
05:00 147 J/kg -1.5 K 0 % 0 % 0 % 0 m²/s² 0 0 -0.57 3
06:00 168 J/kg -1.2 K 0 % 0 % 0 % 0 m²/s² 0 0 -0.06 3
07:00 146 J/kg -1.2 K 0 % 0 % 0 % 0 m²/s² 0 0 -0.06 45
08:00 54 J/kg -1.4 K 0 % 0 % 0 % 0 m²/s² 0 0 -0.08 3
09:00 9 J/kg -1.5 K 0 % 0 % 0 % 0 m²/s² 0 0 -0.69 2
10:00 0 J/kg -1.3 K 0 % 0 % 0 % 0 m²/s² 0 0 -0.31 3
11:00 9 J/kg -0.7 K 0 % 0 % 0 % 0 m²/s² 0 0 1.13 3
12:00 78 J/kg -0.3 K 0 % 0 % 0 % 0 m²/s² 0 0 1.92 3
13:00 191 J/kg -1.0 K 0 % 0 % 0 % 0 m²/s² 0 0 1.43 3
14:00 232 J/kg -1.2 K 0 % 0 % 0 % 0 m²/s² 0 0 1.47 2
15:00 139 J/kg -1.1 K 0 % 0 % 0 % 0 m²/s² 0 0 1.57
16:00 190 J/kg -1.3 K 0 % 0 % 0 % 0 m²/s² 0 0 1.7
Temp Baro Wind Neerslag
  EWN Forecast EWN WRFDA DWD ICON FMI HIRLAM MET Norway GFS
 07:46     18:30    Daglengte: 10:44 Vandaag
17:00 16.7° 1014.2 hPa 4.2 m/s 5.9 mm 20.5° 1012.2 hPa 2.8 m/s 9.6 mm 16.5° 1015.2 hPa 3.4 m/s 3.6 mm 16.6° 1014.4 hPa 4.7 m/s 0.0 mm 16.8° 1013.4 hPa 5.5 m/s 2.6 mm 17.5° 1013.7 hPa 3.3 m/s
20:00 16.0° 1014.8 hPa 3.9 m/s 4.5 mm 20.0° 1012.5 hPa 1.6 m/s 29.0 mm 15.7° 1015.4 hPa 2.5 m/s 1.7 mm 16.4° 1015.0 hPa 5.4 m/s 0.0 mm 15.8° 1013.9 hPa 5.7 m/s 0.4 mm 16.7° 1014.9 hPa 2.9 m/s
23:00 15.5° 1015.7 hPa 3.8 m/s 6.1 mm 17.6° 1013.9 hPa 3.4 m/s 29.0 mm 15.4° 1015.8 hPa 2.2 m/s 1.6 mm 16.6° 1016.2 hPa 4.9 m/s 0.0 mm 15.3° 1015.2 hPa 4.7 m/s 2.3 mm 16.5° 1015.7 hPa 2.9 m/s
 07:47     18:29    Daglengte: 10:42 Morgen
02:00 15.3° 1016.3 hPa 3.9 m/s 2.0 mm 16.7° 1014.3 hPa 4.1 m/s 29.0 mm 15.2° 1016.6 hPa 1.6 m/s 0.2 mm 16.4° 1016.5 hPa 5.2 m/s 0.0 mm 15.2° 1015.6 hPa 4.5 m/s 0.0 mm 15.9° 1016.4 hPa 2.4 m/s
05:00 14.9° 1016.1 hPa 4.2 m/s 0.0 mm 16.2° 1013.8 hPa 4.7 m/s 29.0 mm 14.6° 1016.5 hPa 1.5 m/s 0.0 mm 16.5° 1016.3 hPa 5.5 m/s 0.0 mm 14.7° 1015.4 hPa 4.7 m/s 0.0 mm 15.7° 1016.0 hPa 3.2 m/s
08:00 14.8° 1016.7 hPa 5.1 m/s 0.0 mm 16.3° 1014.6 hPa 6.0 m/s 29.1 mm 14.4° 1017.0 hPa 1.2 m/s 0.4 mm 16.2° 1017.1 hPa 6.3 m/s 0.0 mm 14.6° 1015.9 hPa 5.6 m/s 0.0 mm 15.2° 1016.9 hPa 2.6 m/s
11:00 16.7° 1017.6 hPa 5.6 m/s 5.4 mm 18.3° 1014.9 hPa 7.2 m/s 29.2 mm 15.7° 1018.2 hPa 2.3 m/s 1.2 mm 17.6° 1017.9 hPa 6.8 m/s 0.0 mm 16.8° 1016.9 hPa 5.9 m/s 0.9 mm 17.2° 1017.8 hPa 3.5 m/s
14:00 18.7° 1017.0 hPa 5.6 m/s 4.1 mm 21.5° 1014.0 hPa 7.4 m/s 29.2 mm 17.6° 1017.4 hPa 1.8 m/s 1.0 mm 19.0° 1017.2 hPa 7.0 m/s 0.0 mm 18.9° 1016.6 hPa 6.2 m/s 0.9 mm 19.0° 1017.1 hPa 3.3 m/s
17:00 18.3° 1016.1 hPa 5.8 m/s 5.6 mm 22.0° 1013.2 hPa 7.9 m/s 29.2 mm 17.7° 1016.8 hPa 2.5 m/s 2.6 mm 19.2° 1016.2 hPa 7.3 m/s 0.0 mm 18.3° 1015.8 hPa 6.2 m/s 0.8 mm 19.3° 1016.4 hPa 2.3 m/s
20:00 17.1° 1016.8 hPa 5.3 m/s 5.8 mm 19.9° 1014.3 hPa 8.5 m/s 30.3 mm 16.8° 1018.4 hPa 2.7 m/s 1.3 mm 18.5° 1016.5 hPa 7.9 m/s 0.0 mm 16.8° 1016.7 hPa 5.2 m/s 1.3 mm 18.0° 1017.9 hPa 2.2 m/s
23:00 17.0° 1017.8 hPa 5.5 m/s 6.4 mm 19.4° 1015.7 hPa 6.8 m/s 34.0 mm 16.5° 1018.6 hPa 2.6 m/s 1.2 mm 17.6° 1017.6 hPa 7.7 m/s 0.0 mm 17.0° 1017.7 hPa 5.9 m/s 0.0 mm 17.8° 1018.4 hPa 2.5 m/s
 07:49     18:27    Daglengte: 10:38 Maandag 21 Okt
02:00 16.6° 1018.0 hPa 4.2 m/s 8.1 mm 18.5° 1014.6 hPa 5.4 m/s 41.9 mm 16.3° 1018.9 hPa 2.6 m/s 1.7 mm 17.4° 1017.6 hPa 6.7 m/s 0.0 mm 16.5° 1018.1 hPa 4.5 m/s 3.8 mm 17.1° 1017.7 hPa 3.2 m/s
05:00 16.2° 1017.7 hPa 4.2 m/s 15.3 mm 18.3° 1013.7 hPa 7.2 m/s 56.4 mm 16.0° 1019.1 hPa 2.0 m/s 1.2 mm 17.6° 1017.4 hPa 6.9 m/s 0.0 mm 16.0° 1017.8 hPa 4.2 m/s 11.2 mm 16.6° 1017.3 hPa 2.8 m/s
08:00 16.0° 1019.0 hPa 3.9 m/s 22.6 mm 17.3° 1016.3 hPa 3.4 m/s 95.8 mm 15.7° 1020.1 hPa 2.1 m/s 7.6 mm 17.7° 1018.5 hPa 7.4 m/s 0.0 mm 15.8° 1018.9 hPa 4.6 m/s 10.8 mm 16.5° 1017.9 hPa 4.3 m/s
11:00 17.3° 1020.8 hPa 3.1 m/s 18.7 mm 18.5° 1018.4 hPa 2.9 m/s 96.8 mm 17.8° 1021.9 hPa 2.7 m/s 2.4 mm 17.4° 1020.6 hPa 3.1 m/s 2.5 mm 17.5° 1019.3 hPa 3.9 m/s
14:00 18.7° 1020.8 hPa 2.2 m/s 16.8 mm 20.0° 1018.5 hPa 1.0 m/s 99.3 mm 20.2° 1021.8 hPa 2.6 m/s 0.6 mm 18.7° 1020.6 hPa 2.2 m/s 7.0 mm 19.8° 1019.9 hPa 3.8 m/s
17:00 18.6° 1020.3 hPa 1.9 m/s 16.5 mm 20.5° 1017.3 hPa 1.7 m/s 101.4 mm 19.7° 1021.7 hPa 1.4 m/s 1.6 mm 18.5° 1020.2 hPa 3.1 m/s 3.9 mm 20.2° 1019.2 hPa 3.0 m/s
20:00 17.7° 1021.0 hPa 2.1 m/s 11.2 mm 19.9° 1018.2 hPa 0.2 m/s 104.0 mm 18.4° 1022.7 hPa 1.5 m/s 1.0 mm 17.6° 1020.8 hPa 4.0 m/s 3.3 mm 18.7° 1020.5 hPa 3.2 m/s
23:00 17.3° 1021.9 hPa 1.9 m/s 22.4 mm 19.2° 1018.7 hPa 2.1 m/s 107.6 mm 17.5° 1023.4 hPa 1.1 m/s 0.5 mm 17.3° 1021.8 hPa 2.9 m/s 1.6 mm 17.8° 1021.6 hPa 1.4 m/s
 07:50     18:25    Daglengte: 10:35 Dinsdag 22 Okt
02:00 16.8° 1022.4 hPa 1.5 m/s 21.1 mm 18.5° 1019.3 hPa 3.0 m/s 112.6 mm 16.7° 1024.0 hPa 0.9 m/s 0.7 mm 16.8° 1022.3 hPa 1.5 m/s 1.1 mm 17.8° 1021.8 hPa 1.4 m/s
05:00 16.4° 1022.3 hPa 1.7 m/s 16.0 mm 18.1° 1019.2 hPa 3.0 m/s 117.0 mm 16.0° 1023.8 hPa 0.8 m/s 0.5 mm 16.3° 1022.2 hPa 1.6 m/s 1.1 mm 16.9° 1021.3 hPa 1.2 m/s
08:00 15.8° 1022.7 hPa 1.3 m/s 0.0 mm 17.9° 1019.2 hPa 2.5 m/s 118.7 mm 15.7° 1024.1 hPa 0.8 m/s 0.0 mm 15.4° 1022.7 hPa 1.3 m/s 1.2 mm 16.7° 1021.3 hPa 0.7 m/s
11:00 18.4° 1022.7 hPa 1.6 m/s 0.0 mm 18.9° 1020.4 hPa 4.4 m/s 121.4 mm 19.1° 1024.5 hPa 1.5 m/s 0.0 mm 17.8° 1022.7 hPa 1.0 m/s 18.9° 1021.4 hPa 0.5 m/s
14:00 21.0° 1022.5 hPa 1.8 m/s 0.0 mm 22.0° 1020.0 hPa 5.5 m/s 121.8 mm 21.8° 1023.2 hPa 2.2 m/s 0.0 mm 20.2° 1022.7 hPa 0.7 m/s 21.4° 1021.4 hPa 0.8 m/s
17:00 19.2° 1022.0 hPa 1.7 m/s 121.8 mm 22.5° 1019.2 hPa 4.3 m/s 121.8 mm 18.6° 1022.5 hPa 1.2 m/s 20.8° 1020.0 hPa 1.7 m/s
20:00 17.6° 1021.8 hPa 1.7 m/s 121.8 mm 21.2° 1019.7 hPa 1.4 m/s 121.8 mm 17.0° 1022.2 hPa 1.8 m/s 18.9° 1020.8 hPa 0.1 m/s
23:00 15.7° 1021.8 hPa 1.6 m/s 23.8 mm 15.5° 1021.8 hPa 1.7 m/s 18.1° 1021.5 hPa 1.0 m/s 23.8 mm
 07:51     18:24    Daglengte: 10:33 Woensdag 23 Okt
02:00 14.9° 1021.6 hPa 1.5 m/s 23.8 mm 14.7° 1021.6 hPa 1.6 m/s 17.5° 1021.0 hPa 0.7 m/s 23.8 mm
05:00 14.1° 1021.0 hPa 1.2 m/s 23.8 mm 13.8° 1021.0 hPa 1.3 m/s 16.8° 1020.2 hPa 0.4 m/s 23.8 mm
08:00 13.2° 1020.4 hPa 0.9 m/s 23.8 mm 12.9° 1020.5 hPa 1.0 m/s 16.3° 1019.0 hPa 0.1 m/s 23.8 mm
11:00 17.5° 1019.8 hPa 1.0 m/s 23.8 mm 17.3° 1020.0 hPa 1.1 m/s 19.8° 1018.6 hPa 0.5 m/s 23.8 mm
14:00 21.8° 1019.2 hPa 1.1 m/s 23.8 mm 21.7° 1019.4 hPa 1.1 m/s 22.5° 1017.6 hPa 0.9 m/s 23.8 mm
17:00 19.1° 1018.9 hPa 1.1 m/s 23.8 mm 18.9° 1019.0 hPa 1.0 m/s 22.0° 1016.9 hPa 1.7 m/s 23.8 mm
20:00 16.3° 1018.6 hPa 0.9 m/s 23.8 mm 16.0° 1018.7 hPa 0.9 m/s 19.7° 1017.3 hPa 0.8 m/s 23.8 mm
23:00 15.2° 1018.6 hPa 1.5 m/s 23.8 mm 14.8° 1018.7 hPa 1.5 m/s 18.8° 1017.1 hPa 2.3 m/s 23.8 mm
 07:53     18:22    Daglengte: 10:29 Donderdag 24 Okt
02:00 14.1° 1018.6 hPa 1.9 m/s 23.8 mm 13.7° 1018.7 hPa 2.0 m/s 18.4° 1017.1 hPa 1.1 m/s 23.8 mm
05:00 13.8° 1018.3 hPa 1.6 m/s 23.8 mm 13.5° 1018.5 hPa 1.7 m/s 17.7° 1016.6 hPa 1.0 m/s 23.8 mm
08:00 13.6° 1018.0 hPa 1.4 m/s 23.8 mm 13.3° 1018.2 hPa 1.4 m/s 17.0° 1015.8 hPa 1.4 m/s 23.8 mm
11:00 16.5° 1018.1 hPa 1.2 m/s 24.0 mm 16.5° 1018.4 hPa 1.3 m/s 17.2° 1015.6 hPa 0.5 m/s 24.0 mm
14:00 19.4° 1018.3 hPa 1.3 m/s 25.1 mm 19.6° 1018.5 hPa 1.2 m/s 17.4° 1015.9 hPa 1.9 m/s 25.1 mm
17:00 18.0° 1018.3 hPa 1.2 m/s 25.5 mm 17.9° 1018.6 hPa 1.2 m/s 18.6° 1014.6 hPa 1.1 m/s 25.5 mm
20:00 16.3° 1018.4 hPa 1.4 m/s 25.6 mm 16.2° 1018.7 hPa 1.3 m/s 17.8° 1015.4 hPa 2.6 m/s 25.6 mm
23:00 15.1° 1018.7 hPa 1.5 m/s 25.6 mm 14.8° 1018.9 hPa 1.4 m/s 17.8° 1016.3 hPa 2.1 m/s 25.6 mm
 07:54     18:20    Daglengte: 10:26 Vrijdag 25 Okt
02:00 13.8° 1018.8 hPa 1.5 m/s 25.6 mm 13.5° 1019.1 hPa 1.5 m/s 17.3° 1015.8 hPa 1.0 m/s 25.6 mm
05:00 13.3° 1018.9 hPa 1.2 m/s 25.7 mm 13.0° 1019.2 hPa 1.1 m/s 16.5° 1015.5 hPa 2.6 m/s 25.7 mm
08:00 12.8° 1019.1 hPa 0.7 m/s 25.7 mm 12.5° 1019.4 hPa 0.7 m/s 16.2° 1015.2 hPa 0.1 m/s 25.7 mm
11:00 16.6° 1019.4 hPa 0.9 m/s 25.7 mm 16.4° 1019.8 hPa 0.9 m/s 18.8° 1015.1 hPa 1.0 m/s 25.7 mm
14:00 20.3° 1019.7 hPa 1.2 m/s 25.7 mm 20.3° 1020.2 hPa 1.1 m/s 20.3° 1014.4 hPa 1.8 m/s 25.7 mm
17:00 17.5° 1020.0 hPa 1.5 m/s 26.4 mm 17.6° 1020.5 hPa 1.3 m/s 17.4° 1013.7 hPa 3.8 m/s 26.4 mm
20:00 14.9° 1020.4 hPa 1.6 m/s 28.3 mm 14.8° 1020.9 hPa 1.5 m/s 16.5° 1014.6 hPa 2.8 m/s 28.3 mm
23:00 13.4° 1021.0 hPa 1.5 m/s 28.6 mm 13.1° 1021.5 hPa 1.4 m/s 17.1° 1015.8 hPa 2.5 m/s 28.6 mm
 07:55     18:19    Daglengte: 10:24 Zaterdag 26 Okt
02:00 11.8° 1021.5 hPa 1.3 m/s 28.6 mm 11.4° 1022.1 hPa 1.3 m/s 16.7° 1015.5 hPa 1.5 m/s 28.6 mm
05:00 12.0° 1021.5 hPa 1.0 m/s 28.7 mm 11.6° 1022.0 hPa 1.0 m/s 16.4° 1014.9 hPa 0.8 m/s 28.7 mm
08:00 12.1° 1021.4 hPa 0.7 m/s 28.7 mm 11.7° 1022.0 hPa 0.7 m/s 15.9° 1015.2 hPa 0.4 m/s 28.7 mm
11:00 16.0° 1021.7 hPa 1.1 m/s 29.2 mm 16.0° 1022.3 hPa 0.9 m/s 16.0° 1015.6 hPa 2.7 m/s 29.2 mm
14:00 19.9° 1022.0 hPa 1.2 m/s 30.5 mm 20.3° 1022.6 hPa 1.2 m/s 15.2° 1015.1 hPa 0.7 m/s 30.5 mm
20:00 14.5° 1021.3 hPa 1.9 m/s 31.1 mm 14.4° 1021.9 hPa 1.9 m/s 15.7° 1015.0 hPa 1.7 m/s 31.1 mm
 07:57     18:17    Daglengte: 10:20 Zondag 27 Okt
02:00 12.9° 1021.2 hPa 0.8 m/s 31.1 mm 12.7° 1021.7 hPa 0.8 m/s 14.7° 1015.5 hPa 0.7 m/s 31.1 mm
07:00 10.7° 1020.1 hPa 1.1 m/s 31.1 mm 10.4° 1020.5 hPa 1.2 m/s 14.1° 1015.6 hPa 0.4 m/s 31.1 mm
13:00 20.2° 1019.7 hPa 1.4 m/s 31.1 mm 20.1° 1020.2 hPa 1.4 m/s 21.4° 1014.7 hPa 1.2 m/s 31.1 mm
19:00 13.6° 1019.3 hPa 1.6 m/s 31.1 mm 13.2° 1019.7 hPa 1.7 m/s 17.8° 1015.3 hPa 1.0 m/s 31.1 mm
 07:58     18:16    Daglengte: 10:18 Maandag 28 Okt
01:00 10.8° 1019.9 hPa 1.5 m/s 31.1 mm 10.4° 1020.3 hPa 1.5 m/s 15.4° 1015.7 hPa 1.1 m/s 31.1 mm
07:00 9.9° 1020.2 hPa 2.1 m/s 31.1 mm 9.5° 1020.7 hPa 2.2 m/s 13.9° 1015.1 hPa 0.4 m/s 31.1 mm
13:00 18.9° 1020.2 hPa 2.6 m/s 31.1 mm 18.8° 1020.8 hPa 2.7 m/s 20.0° 1013.6 hPa 0.9 m/s 31.1 mm
19:00 13.4° 1020.0 hPa 1.9 m/s 31.1 mm 13.1° 1020.6 hPa 2.0 m/s 17.0° 1013.7 hPa 0.3 m/s 31.1 mm
 08:00     18:14    Daglengte: 10:14 Dinsdag 29 Okt
01:00 12.3° 1020.7 hPa 1.8 m/s 31.1 mm 12.1° 1021.3 hPa 1.9 m/s 15.0° 1014.3 hPa 0.5 m/s 31.1 mm
07:00 13.8° 1013.5 hPa 0.3 m/s 31.1 mm 13.8° 1013.5 hPa 0.3 m/s 31.1 mm
13:00 17.1° 1016.4 hPa 0.7 m/s 0.0 mm
19:00 11.1° 1017.2 hPa 0.7 m/s 0.1 mm
 08:01     18:13    Daglengte: 10:12 Woensdag 30 Okt
01:00 9.5° 1018.5 hPa 1.4 m/s 0.1 mm
07:00 8.5° 1018.6 hPa 1.4 m/s 0.2 mm
13:00 15.3° 1017.5 hPa 1.0 m/s 0.2 mm
19:00 10.0° 1018.5 hPa 0.8 m/s 0.2 mm
 08:02     18:11    Daglengte: 10:09 Donderdag 31 Okt
01:00 8.8° 1019.5 hPa 1.2 m/s 0.3 mm
07:00 7.7° 1019.5 hPa 1.1 m/s 0.1 mm
13:00 14.9° 1017.9 hPa 1.1 m/s 0.0 mm
19:00 9.7° 1018.9 hPa 0.2 m/s 0.0 mm
 08:04     18:10    Daglengte: 10:06 Vrijdag 01 Nov
01:00 8.6° 1019.8 hPa 1.1 m/s 0.0 mm
07:00 7.9° 1019.9 hPa 1.2 m/s 0.0 mm
13:00 15.4° 1018.6 hPa 1.1 m/s 0.0 mm
19:00 9.8° 1019.5 hPa 0.4 m/s 0.0 mm
 08:05     18:08    Daglengte: 10:03 Zaterdag 02 Nov
01:00 8.9° 1019.9 hPa 1.5 m/s 0.2 mm
07:00 7.9° 1019.5 hPa 1.4 m/s 0.6 mm
13:00 15.0° 1018.4 hPa 1.0 m/s 0.2 mm
19:00 9.5° 1019.2 hPa 0.4 m/s 0.1 mm
 08:07     18:07    Daglengte: 10:00 Zondag 03 Nov
01:00 8.5° 1019.7 hPa 1.1 m/s 0.1 mm
07:00 7.8° 1019.2 hPa 1.2 m/s 0.6 mm
13:00 14.3° 1017.7 hPa 0.9 m/s 0.9 mm
FMI Hirlam - 7.5 km EWN WRFDA - 12 km DWD ICON - 7 km GFS - 25 km Basiskaart






























































Updatetijd (Europe/Amsterdam) Resolutie Lengte Stap
FMI Hirlam 14:00, 20:00, 02:00, 08:00 7.5 km 49h 1h
EWN WRFDA 15:30, 21:30, 03:30, 09:30 12 km 73h 1h
DWD ICON 14:30, 20:30, 02:30, 08:30 7 km 75h 1h
GFS 15:30, 21:30, 03:30, 09:30 25 km 237h 3h
30+ mm
25-30 mm
20-25 mm
15-20 mm
10-15 mm
6-10 mm
4-6 mm
2-4 mm
1-2 mm
0.5-1 mm
0.2-0.5 mm
0.1-0.2 mm
30+ mm
25-30 mm
20-25 mm
15-20 mm
10-15 mm
6-10 mm
4-6 mm
2-4 mm
1-2 mm
0.5-1 mm
0.2-0.5 mm
0.1-0.2 mm
Sneeuwval
Natte sneeuw
Hagel
Vorst
30+ mm
25-30 mm
20-25 mm
15-20 mm
10-15 mm
6-10 mm
4-6 mm
2-4 mm
1-2 mm
0.5-1 mm
0.2-0.5 mm
0.1-0.2 mm
Sneeuwval
Natte sneeuw
Hagel
Vorst
Onweer
50 mm
40 mm
30 mm
26 mm
22 mm
18 mm
14 mm
10 mm
9 mm
8 mm
7 mm
6 mm
5 mm
4.5 mm
4 mm
3.5 mm
3 mm
2.5 mm
2 mm
1.5 mm
1 mm
0.8 mm
0.6 mm
0.4 mm
0.2 mm
0.05 mm
35°
30°
25°
20°
15°
10°
-5°
-10°
-15°
-20°
-25°
-30°
-35°
120> km/h
105 km/h
90 km/h
75 km/h
60 km/h
50 km/h
40 km/h
30 km/h
20 km/h
10 km/h
0 km/h
2600 J/kg
2400 J/kg
2200 J/kg
2000 J/kg
1800 J/kg
1600 J/kg
1400 J/kg
1200 J/kg
1000 J/kg
800 J/kg
600 J/kg
400 J/kg
200 J/kg
70 dBZ
65 dBZ
60 dBZ
55 dBZ
50 dBZ
45 dBZ
40 dBZ
35 dBZ
30 dBZ
25 dBZ
20 dBZ
15 dBZ
10 dBZ
5 dBZ
-1 K
-2 K
-3 K
-4 K
-5 K
-6 K
-7 K
-8 K
-9 K
950 m²/s²
900 m²/s²
850 m²/s²
800 m²/s²
750 m²/s²
700 m²/s²
650 m²/s²
600 m²/s²
550 m²/s²
500 m²/s²
450 m²/s²
400 m²/s²
350 m²/s²
300 m²/s²
250 m²/s²
200 m²/s²
150 m²/s²
100 m²/s²
46 m/s
44 m/s
42 m/s
40 m/s
38 m/s
36 m/s
34 m/s
32 m/s
30 m/s
28 m/s
26 m/s
24 m/s
22 m/s
20 m/s
16 m/s
12 m/s
8 m/s